Vorticity
1 2 3 4 6 15 25 17 13 14 8 9 9 8 7 5 6 4 4 5 7 30 14 4 16 14 16 -14 16 17 12 8 17 -0 7 4 6 7 7 7 7 6 5
4 8 16 24 26 30 11 8 5 5 3 4 8 8 7 7 7 6 5 4 6 16 28 11 4 -6 10 25 -6 -7 8 3 1 7 -1 11 6 5 7 9 10 10 10
18 20 17 13 12 5 4 8 4 3 4 2 4 5 5 6 7 8 7 4 4 8 25 16 15 11 8 5 17 17 11 7 8 10 -3 7 10 5 6 8 7 8 8
8 10 12 11 7 4 3 4 5 3 2 2 2 3 4 4 5 7 7 7 4 5 8 35 1 6 -1 10 0 9 18 14 7 8 3 2 7 9 6 6 6 5 5
9 5 6 6 5 5 1 5 3 3 3 3 2 2 4 4 5 5 7 7 7 4 5 11 29 24 1 -6 15 2 -9 -0 34 6 7 0 4 8 7 5 8 3 5
3 4 5 5 5 3 2 5 3 3 4 4 3 3 4 5 5 5 5 7 9 7 4 6 10 11 27 19 -1 -2 1 -1 3 23 16 5 6 6 4 6 4 3 9
4 5 5 4 7 7 6 3 3 4 4 4 4 5 6 6 6 4 4 5 6 9 8 5 8 4 20 13 23 21 7 9 11 9 6 18 9 6 6 5 4 0 6
6 7 9 9 6 5 6 7 7 4 3 5 4 2 3 4 3 4 7 6 6 6 7 9 6 6 8 3 21 19 13 17 10 10 12 7 11 11 7 8 4 3 2
6 2 6 8 9 8 6 5 3 5 7 8 7 9 9 10 7 5 5 7 6 5 8 7 8 6 7 8 7 4 12 22 20 12 9 8 14 15 9 11 11 5 2
9 8 5 6 8 9 10 10 10 10 10 10 10 9 10 11 10 9 7 6 7 8 7 8 9 9 5 6 7 8 9 5 5 11 22 28 10 9 19 17 9 15 10
5 5 6 7 6 6 7 7 8 9 9 9 11 11 10 8 8 8 8 7 6 7 7 7 8 8 9 4 7 9 7 7 10 10 7 6 7 15 21 25 17 7 11
6 5 5 6 6 8 8 9 9 10 11 10 10 9 9 9 10 11 11 11 9 7 5 9 8 12 9 7 4 2 6 14 4 9 8 11 11 11 9 8 10 17 26
5 5 5 5 8 9 9 9 10 11 10 12 11 9 10 12 12 12 12 11 10 8 7 5 6 7 8 10 11 14 9 2 2 11 8 7 7 8 9 10 10 12 14
7 8 9 9 9 10 11 10 8 7 8 8 9 8 8 7 7 8 8 9 7 9 11 11 8 2 2 4 3 5 8 9 11 10 -0 1 5 7 8 6 7 6 5
7 9 10 11 10 9 8 7 8 8 9 9 10 10 10 9 9 8 7 6 7 7 8 9 9 9 10 8 10 5 3 8 6 9 12 17 17 9 8 8 7 5 7
11 12 9 7 7 8 8 9 10 11 11 9 8 7 7 8 8 9 9 9 7 6 8 7 7 8 12 15 16 18 13 6 6 4 4 2 5 14 18 11 11 8 10
9 8 9 10 8 8 9 7 7 11 11 10 9 9 9 10 11 10 10 12 13 11 11 12 9 8 7 9 12 14 15 16 20 11 8 6 3 3 7 11 15 15 9
7 9 10 6 6 8 9 9 12 11 9 10 9 9 11 11 13 14 13 12 12 12 13 13 13 11 10 10 8 9 12 12 15 16 20 16 9 6 4 3 4 13 17
8 6 5 8 9 9 9 8 11 10 9 10 10 13 14 13 14 12 12 14 16 16 17 16 13 12 9 10 10 9 7 9 10 12 14 17 22 17 9 7 4 2 3
11 12 12 10 10 13 13 12 14 14 14 10 12 13 13 17 17 17 18 19 19 18 18 16 18 16 14 13 12 12 11 8 10 12 10 9 11 14 24 16 8 6 4
5 7 8 10 14 15 15 14 15 21 19 20 22 24 22 23 24 25 25 24 23 22 23 21 17 17 16 13 15 12 13 13 10 12 14 13 11 11 13 17 22 14 10
14 14 13 15 17 18 22 25 37 34 31 28 28 26 23 22 22 20 20 19 20 18 18 20 19 17 19 20 16 19 18 16 14 11 12 12 16 12 12 12 15 15 16
15 19 21 23 27 27 26 29 33 23 12 10 12 13 15 17 15 12 10 7 7 7 7 11 20 24 18 21 21 17 21 24 21 18 14 15 14 15 14 15 15 17 13
27 30 28 24 24 20 14 11 15 0 5 9 10 11 5 4 6 1 7 17 8 6 9 12 9 11 13 16 12 18 18 21 23 21 20 17 19 18 16 14 15 16 16
17 13 13 14 11 8 6 4 11 17 7 11 14 8 5 8 4 7 13 8 23 19 23 16 21 23 25 24 25 15 13 14 20 21 19 20 22 20 18 16 15 14 15
6 6 5 9 9 9 7 5 5 3 7 -1 3 2 7 8 4 0 6 23 15 18 18 17 11 13 13 17 25 28 10 11 16 19 18 20 22 21 17 17 16 14 15
Height
5801 5796 5792 5787 5782 5778 5773 5769 5765 5761 5758 5754 5749 5745 5740 5734 5729 5723 5717 5710 5702 5698 5696 5696 5698 5699 5702 5704 5706 5711 5712 5716 5719 5719 5725 5730 5734 5739 5743 5747 5751 5754 5757
5792 5787 5782 5778 5773 5770 5766 5763 5760 5756 5753 5749 5745 5741 5736 5731 5725 5720 5714 5710 5705 5699 5697 5697 5696 5699 5701 5703 5704 5706 5709 5711 5715 5719 5720 5724 5727 5731 5734 5738 5741 5744 5747
5782 5778 5774 5771 5767 5764 5760 5757 5753 5750 5746 5742 5739 5735 5730 5726 5721 5716 5712 5708 5704 5700 5696 5696 5696 5695 5696 5699 5699 5700 5702 5705 5708 5711 5712 5716 5718 5722 5725 5728 5731 5734 5737
5774 5771 5767 5764 5760 5757 5753 5749 5745 5742 5738 5734 5730 5726 5723 5719 5715 5711 5707 5704 5701 5697 5695 5692 5691 5691 5691 5691 5692 5693 5694 5696 5699 5701 5704 5706 5709 5713 5716 5719 5721 5724 5726
5767 5764 5761 5756 5752 5748 5745 5741 5738 5734 5730 5727 5723 5719 5715 5711 5709 5706 5703 5700 5696 5692 5689 5687 5684 5683 5684 5683 5682 5683 5685 5687 5689 5691 5693 5697 5699 5701 5706 5710 5710 5713 5716
5759 5756 5753 5748 5744 5740 5737 5733 5730 5727 5723 5719 5714 5711 5707 5704 5700 5698 5695 5693 5692 5689 5684 5680 5677 5675 5672 5673 5673 5673 5674 5676 5679 5680 5682 5685 5688 5691 5696 5699 5702 5704 5705
5749 5746 5744 5741 5737 5733 5728 5724 5720 5717 5714 5710 5707 5703 5699 5696 5692 5689 5685 5683 5681 5680 5678 5676 5672 5668 5665 5663 5662 5663 5664 5664 5666 5668 5671 5674 5677 5679 5683 5687 5691 5694 5696
5740 5737 5734 5730 5727 5723 5718 5714 5709 5706 5702 5699 5696 5693 5689 5686 5683 5679 5676 5673 5670 5668 5667 5666 5663 5661 5659 5655 5653 5652 5652 5652 5654 5655 5658 5661 5664 5666 5668 5673 5677 5681 5685
5729 5726 5722 5719 5715 5711 5706 5702 5697 5693 5689 5685 5682 5678 5675 5673 5670 5667 5665 5661 5658 5656 5654 5653 5652 5651 5648 5647 5645 5644 5642 5641 5642 5644 5645 5647 5649 5652 5655 5658 5661 5665 5670
5718 5714 5709 5705 5701 5696 5692 5688 5684 5680 5675 5670 5666 5662 5659 5655 5653 5650 5649 5647 5646 5643 5641 5640 5638 5637 5636 5635 5635 5634 5632 5631 5631 5631 5632 5635 5636 5638 5640 5643 5647 5650 5653
5704 5699 5694 5689 5684 5681 5676 5672 5668 5663 5658 5655 5651 5647 5644 5641 5638 5636 5634 5632 5629 5627 5625 5623 5622 5622 5622 5621 5620 5621 5621 5620 5620 5620 5620 5621 5622 5624 5626 5628 5631 5634 5637
5689 5682 5676 5671 5668 5663 5659 5655 5650 5646 5641 5637 5634 5630 5627 5624 5621 5619 5617 5616 5614 5611 5610 5608 5607 5605 5607 5607 5606 5605 5605 5607 5607 5608 5608 5609 5609 5611 5612 5615 5617 5619 5621
5671 5665 5660 5655 5649 5644 5639 5635 5631 5628 5625 5621 5617 5613 5610 5608 5604 5601 5599 5596 5594 5592 5592 5591 5590 5590 5589 5589 5589 5590 5590 5590 5593 5594 5594 5596 5596 5599 5599 5600 5602 5605 5607
5655 5651 5645 5639 5632 5627 5622 5618 5613 5610 5606 5602 5598 5595 5591 5587 5585 5581 5580 5578 5576 5575 5571 5570 5572 5571 5571 5571 5570 5571 5573 5574 5575 5577 5579 5581 5582 5584 5585 5586 5589 5591 5593
5639 5633 5626 5620 5615 5609 5604 5598 5594 5590 5585 5582 5579 5576 5573 5569 5564 5562 5558 5555 5553 5551 5554 5551 5549 5549 5550 5549 5550 5552 5554 5556 5558 5560 5561 5564 5565 5567 5569 5571 5574 5576 5579
5621 5615 5609 5602 5596 5590 5584 5580 5575 5570 5565 5562 5558 5555 5552 5549 5546 5542 5539 5536 5534 5532 5530 5530 5528 5527 5526 5527 5527 5529 5534 5536 5539 5542 5544 5545 5548 5551 5553 5555 5559 5562 5565
5601 5595 5588 5582 5576 5570 5563 5560 5555 5551 5545 5541 5537 5532 5528 5526 5523 5520 5517 5514 5512 5510 5508 5508 5507 5505 5503 5503 5504 5506 5510 5514 5517 5520 5524 5527 5530 5532 5535 5538 5541 5546 5550
5580 5572 5564 5558 5553 5547 5540 5535 5530 5525 5522 5519 5514 5510 5505 5502 5499 5496 5492 5490 5488 5486 5485 5484 5483 5483 5482 5480 5481 5483 5486 5491 5495 5498 5502 5507 5511 5514 5516 5519 5524 5530 5534
5557 5550 5543 5536 5530 5524 5518 5512 5509 5502 5498 5493 5487 5484 5479 5475 5471 5468 5465 5462 5461 5461 5460 5458 5458 5458 5460 5458 5458 5459 5462 5468 5472 5476 5480 5485 5490 5494 5496 5501 5505 5512 5518
5536 5528 5521 5513 5506 5500 5492 5487 5482 5476 5471 5463 5460 5457 5453 5448 5445 5442 5439 5437 5434 5435 5433 5434 5432 5432 5434 5434 5435 5435 5438 5443 5449 5455 5459 5463 5467 5472 5475 5480 5486 5493 5499
5516 5507 5498 5489 5483 5476 5467 5461 5456 5452 5443 5439 5436 5432 5428 5424 5422 5419 5416 5413 5410 5409 5408 5408 5409 5408 5408 5411 5411 5413 5415 5419 5425 5432 5438 5441 5445 5450 5456 5461 5467 5473 5477
5494 5485 5473 5465 5458 5449 5441 5436 5434 5427 5422 5418 5414 5412 5409 5405 5402 5398 5398 5394 5391 5388 5388 5386 5387 5387 5386 5387 5389 5390 5391 5396 5400 5408 5414 5420 5424 5429 5435 5441 5449 5453 5455
5468 5460 5450 5443 5437 5429 5421 5416 5414 5408 5404 5401 5399 5396 5394 5391 5388 5384 5383 5379 5375 5370 5368 5366 5366 5368 5367 5367 5368 5369 5371 5374 5378 5384 5390 5397 5404 5409 5415 5421 5428 5433 5438
5444 5435 5427 5421 5417 5413 5407 5403 5399 5395 5390 5387 5384 5382 5379 5378 5375 5371 5367 5363 5360 5353 5350 5347 5344 5344 5346 5349 5349 5348 5352 5355 5358 5363 5369 5377 5383 5389 5394 5400 5406 5414 5420
5424 5417 5410 5404 5399 5396 5392 5390 5386 5381 5376 5372 5370 5368 5364 5361 5359 5356 5351 5346 5342 5335 5331 5329 5324 5324 5326 5329 5328 5330 5333 5337 5341 5344 5350 5357 5364 5370 5375 5381 5388 5395 5402
5407 5401 5394 5386 5382 5378 5374 5373 5370 5363 5358 5354 5353 5350 5346 5343 5340 5335 5332 5331 5324 5320 5316 5312 5308 5308 5308 5311 5311 5312 5316 5321 5326 5329 5335 5340 5347 5353 5357 5363 5370 5376 5383